Location: Passau
(48.5830°N, 13.4830°E)
Time: 17:28:38
(UTC+02:00)

Transit 2A - Pass Details

Date: 05 August 2021
Orbit: 595 x 963 km, 66.7° (Epoch: 16 September)

Event Time Altitude Azimuth Distance (km) Brightness Sun altitude
Rises 04:58:52 0° 156° (SSE) 2,837 8.8 -7.4°
Reaches altitude 10° 05:02:38 10° 121° (ESE) 1,980 8.5 -6.9°
Maximum altitude 05:03:59 11° 103° (ESE) 1,917 8.7 -6.7°
Drops below altitude 10° 05:05:23 10° 85° (E) 2,026 9.3 -6.6°
Sets 05:09:23 0° 52° (NE) 3,022 11.9 -6.0°
